Location: Dana
(41.8364°N, 106.7042°W)
Time: 01:47:41
(UTC+00:00)

Transit 4A - Pass Details

Date: 11 May 2026
Orbit: 860 x 980 km, 66.8° (Epoch: 6 June)

Event Time Altitude Azimuth Distance (km) Brightness Sun altitude
Rises 14:59:36 0° 184° (S) 3,514 10.9 33.4°
Reaches altitude 10° 15:02:14 10° 176° (S) 2,596 10.5 33.9°
Maximum altitude 15:07:44 38° 110° (ESE) 1,392 11.2 34.9°
Drops below altitude 10° 15:13:26 10° 45° (NE) 2,687 10.9 36.0°
Sets 15:16:11 0° 37° (NE) 3,652 11.3 36.5°
